Regional Weather Roundup
Issued by NWS

Home | Current Version | Previous Version | Graphics & Text | Print | Product List | Glossary On
Versions: 1 2 3 4 5 6 7 8 9 10 11 12 13 14 15 16 17 18 19 20 21 22 23 24 25 26 27 28 29 30 31 32 33 34 35 36 37 38 39 40 41 42 43 44 45 46 47 48 49 50
000
ASUS43 KTOP 212059
RWRKS

WEATHER ROUNDUP FOR KANSAS
NATIONAL WEATHER SERVICE GOODLAND KS
300 PM CST SAT JAN 21 2017

NOTE:  "FAIR" INDICATES FEW OR NO CLOUDS BELOW 12,000 FEET WITH NO
SIGNIFICANT WEATHER AND/OR OBSTRUCTIONS TO VISIBILITY.

KSZ001>006-013>018-027>032-041>047-212200-
NORTHWEST KANSAS

CITY           SKY/WX    TMP DP  RH WIND       PRES   REMARKS
GOODLAND       CLOUDY    47  34  60 E10       29.37S
HAYS           SUNNY     53  36  52 E9G18     29.40F
HILL CITY      CLOUDY    53  36  52 SE10      29.41R
RUSSELL        SUNNY     54  37  52 E10       29.39F
$$

KSZ061>065-074>080-084>089-212200-
SOUTHWEST KANSAS

CITY           SKY/WX    TMP DP  RH WIND       PRES   REMARKS
DODGE CITY     MOSUNNY   55  35  47 SE13      29.35F
ELKHART          N/A     51  33  50 E10         N/A
GARDEN CITY    MOSUNNY   53  36  52 SE10G26   29.33F
GREAT BEND     CLOUDY    54  37  52 SE10      29.40F
LIBERAL        MOSUNNY   55  37  50 SE8       29.31S
$$

KSZ066>073-081>083-090>101-212200-
SOUTHEAST KANSAS

CITY           SKY/WX    TMP DP  RH WIND       PRES   REMARKS
CHANUTE        CLOUDY    54  38  54 E7        29.46F
COFFEYVILLE    CLOUDY    54  42  64 N5        29.46S
HUTCHINSON     CLOUDY    50  38  63 SE8       29.42F
MEDICINE LODGE   N/A     47  38  71 E8        29.38F
NEWTON         CLOUDY    49  40  71 SE6       29.43F
PARSONS        CLOUDY    53  40  61 VRB5      29.47F
WICHITA INTL   LGT RAIN  49  41  74 E7        29.41S
WICHITA JABRA  LGT RAIN  49  42  77 CALM      29.42S
WINFIELD       CLOUDY    53  41  63 E6        29.42R
$$

KSZ007>012-019>026-033>040-048>060-102>105-212200-
NORTHEAST KANSAS

CITY           SKY/WX    TMP DP  RH WIND       PRES   REMARKS
CONCORDIA      SUNNY     52  38  58 S7        29.44S
EMPORIA        CLOUDY    53  39  59 SE6       29.44F
LAWRENCE       SUNNY     56  41  57 S7        29.48R
MANHATTAN      SUNNY     56  39  53 S3        29.44F
OLATHE IND     CLOUDY    54  40  59 S8        29.48S
OLATHE EXE     PTSUNNY   53  40  61 S8        29.48S
SALINA         MOSUNNY   55  37  50 NE5       29.43F
TOPEKA BILLARD MOSUNNY   56  39  53 S7        29.47R
TOPEKA FORBES  MOSUNNY   56  40  55 S8        29.47R
$$




USA.gov is the U.S. government's official web portal to all federal, state and local government web resources and services.